Temperature
16 16 16 16 15 15 15 15 15 15 15 14 14 14 14 14 14 13 13 13 12 12 12 12 12 12 12 12 12 12 12 12 12 12 11 11 11 11 11 11 11 11 11
15 15 15 15 15 15 14 14 14 14 14 14 14 14 14 13 13 13 13 13 12 12 12 12 12 12 12 11 11 11 11 11 11 11 11 11 10 10 10 10 10 10 10
15 15 15 15 15 14 14 14 14 14 13 13 13 13 13 13 13 13 13 12 12 12 12 12 12 11 11 11 11 11 11 11 11 11 10 10 10 10 9 10 10 10 10
15 15 15 15 14 14 14 14 13 13 13 13 13 13 12 12 12 12 12 12 12 12 12 12 11 11 11 11 10 10 10 10 10 10 10 10 9 9 9 9 9 9 9
14 14 14 14 14 14 14 13 13 13 13 13 12 12 12 12 12 12 12 12 12 12 12 12 11 11 11 11 10 10 9 9 10 10 9 9 9 9 8 8 8 8 8
14 14 14 14 14 13 13 13 13 13 13 13 12 12 12 12 12 12 12 12 12 12 12 12 11 11 11 11 10 10 9 9 9 9 9 9 9 8 8 7 7 7 7
14 14 14 14 13 13 13 13 13 13 12 12 12 12 12 12 12 12 12 12 12 12 12 12 11 11 11 10 10 10 9 9 8 8 8 8 8 8 7 7 6 6 6
14 14 14 13 13 13 13 13 13 12 12 12 11 11 11 11 12 12 12 12 12 12 11 11 11 11 10 10 10 9 9 9 8 8 7 7 7 7 6 6 6 6 5
14 14 13 13 13 13 13 13 12 12 12 12 11 11 11 11 11 11 11 11 11 11 11 11 11 10 10 10 9 9 8 8 8 7 7 6 6 6 6 5 5 5 5
13 13 13 13 13 13 12 12 12 12 11 11 11 11 10 10 10 10 10 10 10 10 10 10 10 10 10 9 9 9 8 8 7 7 7 6 6 5 5 5 5 5 5
13 13 12 12 12 12 12 12 12 11 11 11 11 10 10 10 10 9 9 9 9 9 9 9 9 9 9 9 9 8 8 7 7 7 6 6 6 5 5 5 5 5 5
12 12 11 11 11 11 11 11 11 11 10 10 10 10 10 9 9 9 9 9 9 9 8 8 8 8 8 8 8 8 7 7 6 6 6 6 6 5 5 5 5 4 4
11 10 10 10 10 10 10 10 10 10 10 10 9 9 9 9 9 8 8 8 8 8 8 8 8 8 8 8 7 7 7 6 6 6 6 5 5 5 5 5 4 4 4
10 9 9 9 9 9 9 9 9 9 9 9 9 9 8 8 8 8 7 7 7 7 7 7 7 7 7 7 7 6 6 6 5 5 5 5 5 5 4 4 4 4 3
8 8 8 9 9 9 9 9 8 8 8 8 8 8 8 7 7 7 7 7 6 6 6 6 6 6 6 6 6 5 5 5 4 4 4 4 4 4 4 3 3 3 3
7 7 7 8 8 8 8 8 8 7 7 7 7 7 7 7 6 6 6 6 6 5 5 5 5 5 5 5 5 5 4 4 4 3 3 3 3 3 3 3 2 2 2
6 7 7 7 7 7 7 7 7 6 6 6 6 6 6 6 6 6 6 5 5 5 4 4 4 4 4 4 4 4 3 3 3 2 2 2 2 2 2 2 2 2 1
6 6 6 6 6 6 6 6 6 6 5 5 5 5 5 5 5 5 5 5 4 4 4 3 3 3 3 3 3 2 2 2 2 2 2 1 1 1 1 1 1 1 0
5 5 5 5 5 5 5 5 5 5 5 4 4 4 4 3 4 4 3 3 3 3 3 2 2 2 2 2 2 2 1 1 1 1 1 1 1 1 0 0 0 -0 -0
4 4 4 4 4 4 4 4 4 4 3 3 3 3 2 2 2 2 2 2 2 2 2 2 1 1 1 1 1 1 1 0 0 0 0 0 0 -0 -0 -0 -1 -1 -1
3 3 3 3 3 3 3 3 3 3 2 2 2 1 1 1 1 1 1 1 1 1 1 1 0 0 -0 -0 -0 -0 -1 -1 -1 -1 -1 -1 -1 -1 -1 -1 -1 -1 -1
3 3 3 3 3 3 3 2 2 2 2 1 1 1 0 0 -0 -0 -0 -0 -0 -0 -0 -1 -1 -1 -1 -2 -2 -2 -2 -2 -2 -2 -2 -2 -2 -2 -2 -2 -2 -2 -2
2 2 2 2 2 2 2 2 2 1 1 1 1 0 -0 -0 -1 -1 -1 -1 -2 -2 -2 -2 -2 -3 -3 -3 -3 -4 -4 -4 -4 -4 -3 -2 -3 -3 -3 -3 -3 -2 -2
1 1 2 2 2 2 1 1 1 1 1 0 -0 -0 -1 -1 -1 -2 -2 -2 -3 -3 -3 -3 -4 -4 -4 -5 -5 -5 -5 -5 -5 -5 -5 -4 -3 -3 -4 -3 -3 -3 -3
1 1 1 1 1 1 1 1 1 0 -0 -0 -1 -1 -2 -2 -2 -3 -3 -3 -3 -4 -4 -5 -5 -5 -5 -6 -6 -6 -6 -6 -5 -5 -5 -5 -4 -4 -3 -3 -3 -3 -3
1 1 1 1 1 1 0 0 0 -0 -0 -1 -1 -2 -2 -3 -3 -4 -4 -4 -4 -4 -5 -5 -5 -5 -6 -6 -6 -6 -6 -6 -6 -6 -6 -6 -5 -5 -4 -4 -4 -4 -4
Wind_Speed
6 7 7 7 8 8 7 7 7 7 7 7 7 6 7 8 9 10 12 13 14 13 12 10 9 9 8 7 6 5 4 4 3 3 3 3 3 3 4 4 5 5 6
9 7 7 8 9 11 11 9 8 7 6 7 7 8 9 10 11 12 13 14 15 16 15 14 13 12 11 10 9 8 7 6 6 5 4 4 3 4 4 4 4 4 5
12 10 7 6 10 12 11 9 8 7 5 6 6 8 9 11 12 13 14 15 16 17 18 18 16 15 14 13 12 11 10 9 8 7 6 6 5 4 4 4 4 4 4
14 11 7 7 11 11 9 5 4 5 6 6 6 6 7 8 11 13 14 15 16 16 19 20 20 18 17 16 15 14 13 12 11 10 9 8 7 6 6 5 4 4 3
13 12 8 9 10 8 7 6 6 5 6 7 7 7 6 6 8 10 11 14 16 17 18 20 22 22 20 19 18 17 16 15 14 13 12 11 10 9 8 7 6 5 4
10 10 8 9 9 5 6 6 7 6 6 6 6 6 6 7 6 6 9 12 14 17 18 19 19 20 22 22 21 20 19 18 17 16 15 13 12 11 10 9 8 7 6
6 7 5 5 6 6 7 7 6 7 6 4 3 5 5 7 8 7 6 7 9 14 16 17 17 17 17 21 23 22 21 20 19 18 17 16 14 13 12 11 10 9 8
4 5 4 4 4 5 6 7 6 4 4 4 4 3 4 4 5 7 6 7 7 8 10 14 15 16 17 16 18 22 23 22 21 20 19 17 16 15 14 13 12 11 10
4 3 4 4 3 4 5 6 6 7 6 4 6 5 4 4 3 3 4 5 5 5 5 9 12 15 16 17 17 20 22 23 22 22 21 20 18 16 15 14 13 12 10
6 5 5 4 3 3 4 5 5 5 6 6 4 6 7 4 4 4 2 2 3 4 5 4 7 11 14 15 16 18 20 21 23 22 20 19 18 17 17 16 15 14 12
6 8 7 5 3 3 3 4 4 4 4 5 5 4 5 5 6 6 6 4 2 3 3 4 4 7 11 13 14 16 19 22 24 24 23 21 20 19 19 18 17 14 10
4 7 8 6 5 3 3 4 3 4 4 5 4 4 4 4 4 6 7 5 4 3 2 2 2 4 6 8 11 14 17 20 22 23 24 23 21 20 20 19 16 11 8
4 6 6 5 5 5 5 4 3 3 3 3 4 4 4 4 3 4 5 5 4 2 2 2 2 4 4 5 7 10 14 17 20 21 22 22 20 17 14 13 10 8 7
3 5 5 6 6 7 6 4 3 3 3 3 3 3 2 2 2 2 3 3 4 3 2 3 2 4 5 5 5 7 9 13 15 17 18 16 11 7 8 9 8 7 6
3 5 5 5 6 7 6 5 4 5 4 5 5 4 3 4 4 3 2 1 3 3 3 1 2 3 5 5 5 4 4 7 8 10 9 8 6 5 6 7 7 6 6
5 5 6 6 6 7 7 6 6 6 7 7 5 7 6 5 5 5 4 3 2 1 2 1 2 3 5 5 6 5 4 4 4 4 4 2 3 5 4 4 4 5 6
5 6 6 6 7 8 7 7 8 8 8 8 8 8 8 7 6 5 5 4 4 3 1 1 2 3 3 4 5 7 8 7 7 6 6 6 5 3 2 1 2 4 5
5 6 6 7 8 8 8 8 9 9 9 9 9 9 8 7 8 6 6 6 4 4 2 1 2 3 3 3 4 4 6 7 8 9 8 6 4 2 1 2 4 5 6
5 6 6 7 8 8 8 8 8 9 9 9 8 8 8 7 8 6 6 5 4 4 4 2 2 2 2 2 3 3 4 5 6 7 7 6 5 4 3 4 5 6 6
6 6 6 7 7 7 8 8 8 8 8 8 8 8 7 7 5 5 5 5 5 5 5 3 3 2 2 2 3 3 3 3 3 5 6 6 6 6 5 5 5 6 7
6 6 6 6 6 6 7 7 7 8 7 8 8 8 8 10 10 7 5 5 5 4 4 4 3 3 3 3 3 2 2 2 3 3 3 3 4 5 7 7 8 9 10
6 6 7 6 6 6 11 12 9 7 7 7 6 6 7 8 11 12 12 11 8 5 3 3 2 2 2 2 2 2 2 2 2 2 3 3 3 3 6 8 9 10 11
5 6 6 6 6 7 11 11 11 7 6 5 5 5 5 6 7 5 8 11 10 11 8 2 2 1 1 1 1 1 1 0 2 3 2 3 3 3 6 7 8 10 11
4 4 4 5 5 6 9 9 9 6 5 4 4 3 4 5 4 4 4 5 5 5 6 3 1 1 2 2 2 2 1 1 3 3 1 2 3 3 4 8 10 9 9
3 2 2 3 4 4 5 7 7 3 3 4 3 3 3 4 7 6 4 4 4 4 6 6 5 4 5 5 2 1 0 1 3 2 0 1 3 3 4 3 6 6 5
3 3 2 2 2 2 3 4 5 2 2 2 3 4 6 6 8 7 2 1 3 4 3 4 5 6 6 6 4 1 3 2 2 3 2 1 2 3 4 3 3 6 8
Wind_Direction
211 220 228 232 234 234 234 238 245 254 261 266 264 258 257 252 249 248 248 247 243 242 243 239 231 229 227 227 227 223 219 216 206 194 185 166 146 134 125 117 112 103 99
217 219 227 231 234 233 233 234 238 243 252 258 262 257 255 254 249 246 246 246 244 241 239 240 237 233 230 228 228 225 223 223 218 209 205 197 185 172 157 142 128 119 112
222 222 225 230 236 237 236 237 243 242 248 249 252 255 252 249 245 243 242 241 242 240 236 237 239 236 233 231 229 226 223 223 223 219 215 212 208 201 186 171 158 145 133
226 223 225 233 237 234 227 226 227 237 243 242 248 250 247 248 246 244 240 237 236 236 235 235 237 237 235 233 232 229 223 221 222 221 219 218 216 213 207 198 188 180 169
230 225 230 235 232 225 223 227 227 222 240 243 246 252 247 242 246 246 240 237 234 232 231 232 234 235 235 234 234 233 227 220 219 220 220 219 218 217 216 214 209 205 200
233 228 233 234 225 221 227 226 234 228 235 245 254 258 251 244 239 236 238 238 235 234 233 232 233 235 234 233 234 236 233 224 217 218 219 219 219 219 220 220 218 217 217
239 229 237 234 220 225 233 228 230 237 242 226 241 268 262 243 241 241 235 233 235 234 232 232 233 233 235 235 234 235 236 233 223 218 219 219 219 221 221 222 221 222 223
259 243 242 242 231 235 240 236 225 232 235 196 205 248 287 290 259 242 234 235 241 239 235 235 234 233 233 233 234 235 236 236 233 224 219 218 219 221 224 225 225 225 225
324 293 274 261 250 237 245 244 231 231 244 226 205 220 250 258 289 281 250 242 245 238 240 239 235 234 234 233 233 234 233 234 237 234 225 219 218 219 224 228 229 228 228
5 355 335 311 289 268 260 259 246 237 239 247 227 227 238 244 259 288 276 267 250 246 248 245 243 240 235 234 234 235 235 234 237 240 235 224 218 217 222 225 228 229 228
17 11 2 350 331 304 288 280 272 254 242 245 236 225 235 241 235 254 273 265 273 252 247 246 251 248 242 236 236 237 236 235 236 237 235 229 222 220 223 226 227 223 214
9 11 6 4 354 340 321 302 286 272 262 255 250 234 226 228 225 234 256 256 256 259 262 259 267 273 264 252 245 244 242 241 239 238 235 233 230 229 229 227 217 207 202
7 360 3 0 357 350 344 337 325 311 295 277 268 261 250 247 241 237 253 265 260 264 295 308 346 341 322 301 275 258 247 243 242 241 239 238 238 238 228 210 198 203 203
9 0 4 8 6 3 0 359 7 359 358 353 345 331 312 320 312 273 258 263 274 263 260 273 33 13 352 334 307 280 261 249 244 246 249 248 242 220 201 193 195 201 210
19 18 17 19 17 16 14 18 31 23 26 26 18 18 23 19 16 2 342 288 264 273 272 319 5 8 354 345 336 322 300 276 259 252 252 251 237 211 182 184 193 206 221
24 25 27 28 29 28 28 37 42 37 49 42 36 43 40 26 27 22 17 13 5 272 262 37 27 4 350 356 12 21 1 331 315 299 276 239 168 151 153 184 210 228 244
35 38 37 40 42 40 37 47 50 49 55 50 44 49 45 38 38 28 26 29 25 11 301 55 44 10 5 12 22 32 37 35 32 37 57 72 79 90 129 191 232 246 256
46 47 48 52 52 49 47 52 56 56 58 56 50 51 46 45 44 34 33 33 27 18 19 37 31 18 18 19 30 30 37 41 41 42 43 43 39 34 6 262 257 260 261
57 54 56 60 59 56 56 57 62 62 62 58 53 54 48 49 48 39 36 31 23 25 28 63 42 25 22 24 37 38 39 32 34 30 30 29 21 6 333 299 283 274 267
64 62 63 66 68 66 63 62 63 63 61 56 50 48 45 47 54 50 42 31 29 33 35 50 44 28 26 18 38 35 31 26 19 15 15 14 10 5 348 326 305 291 279
69 63 63 62 67 73 71 70 65 65 61 56 46 39 40 46 49 53 52 39 38 38 36 40 34 26 20 19 23 13 22 7 9 9 353 352 342 326 313 304 291 281 273
70 65 59 55 55 70 79 79 79 66 62 57 46 31 32 39 42 43 44 42 42 46 41 41 29 29 7 1 5 17 20 17 339 351 352 310 309 291 290 288 281 274 268
81 70 57 53 49 68 79 79 80 78 68 58 48 34 29 26 40 37 37 36 32 35 42 78 56 8 327 311 3 9 9 328 272 298 347 303 320 296 294 294 296 285 273
94 81 65 55 47 58 79 84 85 77 67 53 39 30 21 1 3 55 48 30 18 13 21 47 112 269 260 251 209 194 211 278 286 281 214 283 315 295 295 299 301 288 269
113 102 90 69 53 34 67 88 93 81 60 35 14 12 11 347 352 23 54 21 2 348 2 13 7 348 338 327 277 145 122 1 318 304 322 263 307 308 300 300 314 324 325
143 137 113 80 51 358 30 83 107 103 66 19 1 358 359 350 348 0 77 22 333 312 325 344 353 353 352 350 359 139 173 173 235 288 290 260 305 337 322 300 297 303 305
Height
1566 1567 1567 1568 1568 1569 1569 1569 1569 1569 1569 1569 1569 1569 1569 1569 1569 1569 1569 1569 1569 1569 1569 1569 1568 1567 1566 1566 1565 1564 1564 1563 1563 1563 1563 1562 1563 1563 1563 1563 1563 1563 1563
1565 1565 1566 1566 1567 1567 1567 1567 1567 1567 1567 1567 1567 1567 1567 1567 1566 1566 1566 1566 1566 1566 1566 1566 1566 1565 1565 1564 1563 1563 1562 1562 1561 1561 1561 1561 1561 1561 1562 1562 1562 1562 1562
1563 1563 1563 1564 1564 1565 1565 1564 1564 1564 1564 1564 1564 1564 1564 1564 1563 1563 1563 1563 1563 1563 1563 1563 1563 1563 1562 1562 1561 1561 1560 1560 1560 1560 1560 1560 1560 1560 1560 1560 1561 1561 1561
1560 1560 1560 1561 1561 1561 1561 1561 1561 1560 1560 1560 1560 1560 1560 1560 1559 1559 1559 1559 1559 1559 1559 1559 1559 1559 1559 1559 1559 1558 1558 1557 1557 1557 1557 1558 1558 1558 1558 1559 1559 1559 1560
1557 1557 1557 1557 1558 1557 1557 1557 1557 1557 1556 1556 1556 1555 1555 1555 1555 1555 1554 1554 1554 1554 1554 1555 1555 1555 1555 1555 1555 1555 1555 1554 1554 1555 1555 1555 1555 1556 1556 1557 1557 1557 1558
1553 1553 1553 1553 1553 1553 1553 1552 1552 1552 1551 1551 1550 1549 1549 1549 1549 1548 1549 1549 1549 1549 1549 1549 1550 1550 1550 1551 1551 1551 1551 1551 1550 1551 1551 1552 1552 1553 1553 1554 1555 1555 1556
1548 1548 1548 1548 1548 1548 1548 1548 1547 1547 1546 1546 1545 1543 1542 1542 1541 1542 1542 1542 1542 1543 1543 1543 1543 1544 1544 1545 1545 1546 1547 1547 1546 1546 1547 1547 1548 1549 1550 1551 1552 1552 1553
1544 1543 1543 1543 1543 1543 1543 1543 1542 1541 1541 1541 1540 1538 1536 1535 1534 1535 1535 1536 1536 1536 1536 1537 1537 1537 1538 1538 1539 1540 1541 1541 1542 1542 1542 1542 1544 1545 1546 1547 1548 1550 1550
1538 1538 1538 1538 1538 1537 1537 1537 1537 1536 1535 1535 1535 1535 1532 1529 1529 1529 1529 1530 1530 1530 1530 1530 1530 1531 1531 1531 1531 1532 1533 1534 1535 1536 1536 1537 1538 1540 1541 1543 1544 1546 1547
1533 1533 1532 1532 1532 1531 1531 1531 1531 1530 1530 1529 1529 1529 1529 1527 1526 1523 1523 1525 1525 1525 1525 1524 1524 1524 1524 1524 1524 1525 1525 1526 1527 1529 1530 1531 1532 1534 1536 1538 1539 1540 1542
1527 1527 1526 1526 1526 1525 1525 1525 1525 1524 1524 1523 1523 1523 1523 1522 1521 1520 1517 1518 1519 1519 1519 1519 1518 1517 1517 1517 1517 1517 1518 1519 1520 1521 1522 1524 1525 1527 1529 1531 1533 1534 1536
1522 1521 1521 1520 1520 1519 1519 1519 1518 1518 1518 1518 1517 1517 1517 1516 1516 1515 1512 1511 1512 1513 1513 1513 1512 1511 1510 1510 1510 1510 1510 1511 1512 1513 1515 1517 1519 1521 1522 1524 1526 1528 1530
1517 1517 1516 1515 1515 1514 1514 1513 1513 1513 1512 1512 1512 1511 1511 1511 1510 1510 1508 1507 1506 1506 1506 1507 1506 1505 1504 1503 1503 1503 1503 1504 1505 1506 1508 1511 1513 1514 1516 1517 1519 1522 1524
1513 1512 1511 1511 1510 1510 1509 1508 1508 1507 1507 1507 1506 1506 1505 1505 1505 1504 1504 1503 1501 1500 1500 1501 1500 1500 1499 1498 1497 1497 1497 1497 1498 1500 1502 1504 1505 1507 1509 1511 1514 1516 1519
1509 1508 1507 1507 1506 1505 1504 1504 1503 1502 1502 1501 1501 1500 1500 1499 1499 1499 1499 1498 1498 1496 1496 1496 1495 1495 1494 1492 1492 1491 1492 1492 1493 1494 1496 1498 1499 1501 1504 1506 1509 1511 1513
1506 1505 1504 1503 1502 1501 1500 1500 1499 1498 1498 1497 1497 1496 1495 1495 1495 1494 1494 1494 1493 1493 1492 1491 1491 1490 1489 1488 1487 1487 1487 1488 1489 1490 1492 1493 1495 1496 1499 1501 1503 1505 1507
1503 1502 1501 1500 1499 1498 1497 1496 1495 1495 1494 1494 1493 1492 1492 1492 1491 1491 1490 1490 1489 1489 1488 1488 1487 1486 1485 1484 1484 1484 1484 1485 1486 1487 1488 1489 1491 1492 1494 1496 1498 1499 1500
1500 1499 1498 1497 1496 1495 1495 1494 1493 1492 1492 1491 1491 1490 1490 1489 1488 1488 1487 1487 1486 1485 1485 1484 1483 1482 1482 1481 1481 1481 1481 1482 1483 1484 1485 1486 1487 1488 1490 1491 1492 1493 1494
1498 1497 1496 1495 1494 1494 1493 1492 1491 1491 1490 1489 1489 1489 1488 1487 1487 1486 1485 1484 1484 1483 1482 1482 1481 1480 1479 1479 1479 1479 1479 1480 1480 1481 1482 1482 1483 1484 1485 1486 1486 1487 1488
1496 1496 1495 1494 1493 1492 1492 1491 1490 1490 1489 1489 1488 1488 1487 1486 1485 1484 1484 1483 1482 1481 1480 1479 1478 1478 1477 1476 1477 1477 1477 1477 1477 1477 1478 1478 1478 1479 1479 1480 1480 1481 1482
1495 1494 1494 1493 1493 1492 1491 1491 1490 1490 1489 1488 1488 1487 1486 1485 1484 1483 1482 1481 1480 1479 1478 1477 1476 1476 1475 1474 1474 1474 1474 1474 1473 1473 1473 1473 1473 1473 1474 1474 1474 1475 1476
1494 1494 1493 1493 1492 1492 1491 1491 1490 1490 1489 1488 1487 1486 1485 1484 1483 1482 1480 1479 1478 1477 1476 1475 1474 1474 1473 1472 1472 1471 1471 1470 1470 1470 1469 1469 1469 1468 1468 1468 1469 1469 1470
1493 1493 1493 1493 1492 1492 1491 1491 1490 1489 1488 1487 1486 1485 1484 1483 1481 1480 1479 1477 1476 1475 1474 1473 1472 1471 1471 1470 1470 1469 1468 1468 1467 1466 1466 1465 1465 1465 1464 1464 1464 1464 1465
1493 1493 1493 1492 1492 1492 1491 1490 1489 1488 1487 1486 1485 1484 1482 1481 1479 1478 1477 1475 1474 1473 1472 1471 1470 1469 1469 1468 1467 1467 1466 1465 1465 1464 1463 1462 1461 1461 1461 1460 1460 1460 1460
1492 1492 1492 1492 1492 1491 1490 1489 1488 1487 1486 1485 1484 1482 1481 1479 1478 1476 1475 1474 1472 1471 1470 1469 1468 1467 1467 1466 1465 1464 1464 1463 1462 1462 1461 1460 1458 1457 1457 1456 1456 1455 1455
1491 1491 1491 1491 1491 1490 1489 1488 1487 1486 1485 1484 1482 1481 1479 1478 1476 1474 1473 1472 1470 1469 1468 1467 1466 1465 1464 1464 1463 1462 1462 1461 1460 1459 1458 1458 1456 1455 1453 1453 1452 1452 1452